Location: Utrecht
(52.0907°N, 5.1214°E)
Time: 17:10:59
(UTC+02:00)

KKS-1 - Pass Details

Date: 30 June 2022
Orbit: 634 x 649 km, 98.2° (Epoch: 18 August)

Event Time Altitude Azimuth Distance (km) Brightness Sun altitude
Rises 00:30:50 0° 10° (N) 2,982 ? -13.1°
Reaches altitude 10° 00:33:07 10° 4° (N) 2,066 ? -13.2°
Maximum altitude 00:37:24 45° 293° (WNW) 886 ? -13.4°
Drops below altitude 10° 00:41:39 10° 221° (SW) 2,046 ? -13.5°
Enters shadow 00:42:22 - 218° (SW) 2,325 ? -13.6°
